Torna al catalogo

SCOUT B DEB

AttivoUNKNOWN
NORAD 28265·DEBRIS·🇺🇸 United States

Lanciato Jun 10, 1966 da Wallops Flight Facility

Loading…

Prossimi Passaggi (prossime 24 ore)

TLE

AggiornatoSource: Space-Track

Epoca: Aug 31, 2026, 15:08 UTC

1 28265U 66052E   26243.63059092 -.00000458  00000-0 -47968-3 0  9999
2 28265  40.8500 225.6816 1952620 194.9681 158.4051 10.69499121 81190

Traccia SCOUT B DEB in tempo reale con AllMySat

Download on the App Store